Location: Escoeuilles
(50.7259°N, 1.9264°E)
Time: 07:05:44
(UTC+00:00)

Daily predictions for brighter satellites

Satellite Brightness Start Highest point End
(mag) Time Altitude Azimuth Time Altitude Azimuth Time Altitude Azimuth
USA 234 3.7 16:54:09 10° ENE 17:00:27 52° N 17:06:46 10° WNW
YAOGAN 1 4.1 16:58:09 10° E 17:00:43 16° ENE 17:03:17 10° NNE
ATLAS 5 CENTAUR R/B 2.0 16:57:18 10° SSW 17:01:08 44° SE 17:05:28 10° NE
CZ-4C R/B 2.8 16:58:32 10° NNE 17:01:39 56° ESE 17:04:46 10° S
Cosmos 2082 4.3 16:56:12 10° SW 17:01:50 58° NW 17:07:29 10° NNE
FengYun 1-2 T 4.3 16:57:11 10° SSE 17:02:40 61° ENE 17:08:12 10° N
Tsikada Rocket 4.1 16:57:30 10° S 17:03:49 82° E 17:10:06 10° NNE
NOAA 12 4.1 16:59:18 10° SSE 17:04:32 82° ENE 17:09:49 10° NNW
SL-14 R/B 3.6 17:01:53 10° SSE 17:05:36 45° E 17:09:22 10° NNE
RESURS DK-1 2.4 17:02:35 10° SSW 17:06:43 75° ESE 17:10:52 10° NE
ATLAS 3B R/B 3.5 17:00:02 10° NW 17:06:51 61° SW 17:13:55 10° SSE
Cosmos 2228 3.2 17:03:20 10° N 17:07:31 50° ENE 17:11:40 10° SSE
Cosmos 1400 Rocket 3.9 17:03:48 10° NNW 17:07:48 50° W 17:11:45 10° S
Cosmos 1538 Rocket 4.3 17:08:46 10° NNW 17:13:44 44° ENE 17:18:39 10° SE
CZ-4C R/B 2.5 17:09:13 10° SW 17:14:20 67° NW 17:20:37 10° NE
Meteor 2-5 Rocket 3.8 17:09:04 10° S 17:14:31 59° E 17:19:57 10° NNE
CZ-3B R/B 1.5 17:13:33 10° WNW 17:15:31 43° NNE 17:19:23 10° E
SJ 16-02 3.2 17:15:35 10° ESE 17:17:30 13° E 17:18:57 11° ENE
CORIOLIS 4.2 17:15:54 10° SSE 17:21:19 87° WSW 17:26:44 10° NNW
Cosmos 2263 Rocket 2.2 17:16:27 10° SSW 17:22:06 74° ESE 17:27:47 10° NNE
Cosmos 968 Rocket 4.1 17:19:48 10° SW 17:24:49 55° WNW 17:29:52 10° NNE
Cosmos 1455 3.5 17:21:56 10° NNE 17:24:50 20° ENE 17:27:43 10° ESE
Cosmos 1354 Rocket 4.0 17:21:26 10° SSW 17:26:45 80° ESE 17:32:07 10° NNE
NOAA 11 4.3 17:21:15 10° SSE 17:26:46 87° WSW 17:32:19 10° NNW
Cosmos 2058 Rocket 3.6 17:22:40 10° N 17:26:54 38° ENE 17:31:07 10° SE
USA-17 4.3 17:24:44 10° SW 17:28:18 83° NW 17:30:59 13° NE
Cosmos 1300 2.7 17:25:27 10° N 17:29:17 87° W 17:33:06 10° S
NOSS 7 (H) 4.3 17:30:00 10° SW 17:33:11 68° NW 17:35:34 14° NE
Landsat 5 3.7 17:30:16 10° N 17:34:14 64° WNW 17:38:03 10° SSW
GENESIS II 4.2 17:32:05 10° SW 17:36:05 78° SE 17:39:28 14° NE
ADEOS Rocket 4.4 17:32:23 10° N 17:37:58 36° WNW 17:43:07 10° SW
ARGOS 4.0 17:34:33 10° ESE 17:39:00 28° ENE 17:43:29 10° N
Lacrosse 5 1.8 17:34:50 10° WNW 17:39:55 73° NNE 17:44:58 10° ESE
NOSS 3-1 (C) 4.3 17:33:16 10° NW 17:39:55 45° NNE 17:47:11 12° E
CREW DRAGON DEMO-1 DEB 2.6 17:37:10 10° WNW 17:40:04 81° N 17:41:52 21° E
Okean 1-7 Rocket 4.3 17:37:42 10° SSE 17:41:46 33° E 17:45:53 10° NNE
Cosmos 1943 4.2 17:36:17 10° NW 17:41:47 51° WSW 17:47:13 10° S
Cosmos 1726 Rocket 3.5 17:38:09 10° N 17:42:32 80° E 17:46:56 10° SSE
ERS-2 3.2 17:42:03 18° ENE 17:43:41 25° E 17:46:42 10° SSE
ISS -1.6 17:42:17 10° S 17:44:03 14° SE 17:45:00 12° ESE
CZ-2C R/B 4.3 17:45:49 15° E 17:45:49 15° E 17:48:07 10° ESE
Cosmos 1939 Rocket 2.9 17:41:43 10° SSE 17:45:50 88° E 17:49:58 10° NNW
Meteor 1-24 Rocket 3.5 17:43:15 10° S 17:48:37 86° E 17:53:57 10° NNE
COSMOS 2455 3.2 17:43:44 10° S 17:49:27 47° ESE 17:54:02 16° NE
Cosmos 1833 Rocket 3.9 17:48:48 10° NNW 17:53:04 21° NE 17:54:41 19° ENE
Cosmos 2082 Rocket 3.8 17:51:06 10° N 17:54:41 16° NNE 17:55:56 16° NE
Cosmos 1315 Rocket 4.1 17:51:17 10° NNW 17:55:04 44° W 17:58:52 10° SSW
IRS-1C Rocket 4.0 17:51:31 10° SSE 17:56:44 71° ENE 18:02:00 10° NNW
USA 229 DEB 4.3 17:50:08 10° NW 17:56:52 43° NNE 18:01:49 20° E
USA 229 4.3 17:50:15 10° NW 17:56:58 43° NNE 18:01:52 20° E
CZ-4 R/B 1.5 17:54:12 10° SE 17:58:10 50° ENE 18:02:06 10° N
Feng Yun 1-1 Rocket 4.2 17:54:01 10° SSE 17:59:27 86° WSW 18:05:03 10° NNW
COSMO-SKYMED 1 2.5 17:56:56 10° NNE 18:01:17 65° ESE 18:05:35 10° S
NOSS 3-4 (A) 4.4 17:56:14 10° W 18:01:52 39° NNW 18:07:06 14° NE
NOSS 3-4 (C) 4.4 17:56:22 10° W 18:02:02 40° NNW 18:07:15 14° NE
Cosmos 2279 Rocket 4.3 17:56:02 10° NNW 18:02:17 71° W 18:08:29 10° S
Cosmos 2227 Rocket 4.3 18:06:27 10° WNW 18:10:17 18° NNW 18:14:07 10° N
CZ-4B R/B 1.4 18:08:13 11° NNE 18:11:29 81° WNW 18:14:48 10° SSW
CZ-4 R/B 4.5 18:07:29 10° SSE 18:11:38 83° W 18:15:48 10° NNW
NOSS 3-1 (A) 4.3 18:05:47 10° NW 18:12:28 45° NNE 18:16:57 24° E
Okean-O 2.5 18:09:54 10° SSE 18:14:18 68° ENE 18:18:44 10° N
Cosmos 923 Rocket 4.0 18:10:11 10° NNW 18:15:31 63° ENE 18:20:47 10° SE
CZ-2C R/B 3.3 18:10:32 10° SSE 18:15:51 82° WSW 18:21:31 10° NNW
Cosmos 1844 Rocket 2.9 18:11:09 10° S 18:16:33 47° ESE 18:19:24 26° NE
Okean O Rocket 3.8 18:13:35 10° SSW 18:17:27 29° W 18:21:20 10° NW
Cosmos 1689 Rocket 4.0 18:20:00 18° SSE 18:20:00 18° SSE 18:20:55 10° S
H-2A R/B 1.9 18:13:20 10° SSE 18:18:17 67° ENE 18:23:24 10° N
Meteor 1-21 Rocket 4.3 18:14:14 10° SSE 18:19:30 49° E 18:24:51 10° NNE
ATLAS 2AS CENTAUR R/B 3.7 18:11:57 10° WSW 18:19:33 47° NNW 18:25:31 16° NE
Aureole 2 Rocket 2.4 18:16:55 10° S 18:19:28 48° SE 18:19:28 48° SE
Cosmos 158 Rocket 3.9 18:15:36 10° NNW 18:20:56 74° ENE 18:26:20 10° SSE
Cosmos 1680 Rocket 3.5 18:17:43 10° NNW 18:22:55 56° ENE 18:26:36 19° SE
SAR-Lupe-4 3.4 18:31:27 65° E 18:31:36 66° ESE 18:35:09 10° S
CZ-2D R/B 4.5 18:28:15 10° S 18:31:57 43° W 18:35:38 10° NNW
Meteor 2-10 Rocket 4.3 18:26:50 10° NNW 18:32:18 58° W 18:37:31 10° S
Cosmos 1602 Rocket 4.4 18:28:55 10° SSE 18:31:34 31° SE 18:31:34 31° SE
Cosmos 1818 3.7 18:27:59 10° SSW 18:33:16 55° ESE 18:34:52 40° ENE
H-2A R/B 4.0 18:29:39 10° N 18:33:32 29° WNW 18:37:20 10° WSW
YAOGAN 1 2.6 18:31:56 10° S 18:36:16 79° WSW 18:40:37 10° NNW
Cosmos 1892 Rocket 4.4 18:33:41 10° SSW 18:37:54 50° WNW 18:42:09 10° N
CSL-04 Rocket 3.5 18:34:46 10° SSE 18:40:09 73° ENE 18:45:39 10° NNW
Helios 1A Rocket 2.9 18:37:01 10° SSE 18:41:09 85° WSW 18:45:20 10° NNW
SAR-Lupe-1 3.9 18:42:35 84° SSE 18:42:35 84° SSE 18:46:04 10° SSW
APEX 4.5 18:35:39 10° SSW 18:42:40 88° ESE 18:46:31 26° NNE
USA 234 3.3 18:40:20 36° E 18:43:01 63° NNE 18:49:29 10° WNW
MOS 1 Rocket 3.5 18:41:12 10° N 18:45:30 62° WNW 18:49:43 10° SSW
Iridium 4 Rocket 3.6 18:39:47 10° N 18:45:33 66° E 18:50:52 10° SSE
ATLAS 5 CENTAUR R/B 2.8 18:41:55 10° W 18:45:50 36° NNW 18:47:37 27° NNE
Cosmos 1092 Rocket 3.9 18:40:27 10° S 18:46:34 66° E 18:52:40 10° NNE
Meteor 2-1 Rocket 4.5 18:41:10 10° NNW 18:46:44 68° W 18:52:11 10° S
Cosmos 1812 Rocket 3.4 18:44:11 10° N 18:48:37 72° ENE 18:48:55 69° ESE
Cosmos 2344 4.2 18:43:22 10° NW 18:52:12 72° NE 18:59:36 27° ESE
SL-24 R/B - RUBIN 2 4.5 18:45:35 10° SSW 18:52:15 76° SE 18:54:49 40° NE
SJ 16-02 1.3 18:50:58 10° SSW 18:55:23 85° WNW 18:55:59 66° N
Aureole 3 4.2 18:52:50 10° NNW 18:56:19 41° W 18:59:18 10° SSW
Cosmos 2112 Rocket 3.9 18:55:07 10° NNW 19:00:25 89° WSW 19:02:18 41° SSE
Cosmos 1455 3.6 18:57:02 10° NNW 19:00:36 39° W 19:04:10 10° SSW
CZ-4C R/B 3.7 18:59:03 10° WNW 19:04:01 30° NNW 19:06:30 23° NNE
Nadezhda 4 Rocket 4.4 18:57:51 10° SSW 19:04:02 63° WNW 19:10:13 10° N
Cosmos 2263 Rocket 3.9 19:01:49 10° W 19:06:37 27° NW 19:10:38 13° N
X-37B 3.4 19:04:55 10° SW 19:05:31 13° SSW 19:05:31 13° SSW
COSMOS 2406 3.2 19:09:27 10° NNW 19:14:49 63° NNE 19:14:49 63° NNE
ERS-2 3.9 19:16:37 29° NW 19:17:14 31° WNW 19:20:28 10° SW
ARGOS 3.7 19:13:43 10° S 19:18:58 57° W 19:24:17 10° NNW
ISS -1.1 19:17:00 10° SW 19:17:58 18° SW 19:17:58 18° SW
Lacrosse 5 3.3 19:18:06 10° WNW 19:22:37 33° SW 19:24:15 27° SSW
CZ-2C R/B 3.0 19:27:19 56° S 19:27:19 56° S 19:31:41 10° SSW
NOSS 3-1 (C) 4.1 19:24:05 10° NW 19:31:26 76° SW 19:34:39 42° SSE
CZ-4 R/B 4.1 19:30:33 10° SW 19:33:27 19° W 19:36:21 10° NW
COSMOS 2455 3.7 19:29:41 10° WSW 19:35:28 46° NW 19:37:13 36° N
Cosmos 1553 Rocket 3.9 19:29:23 10° N 19:35:51 90° NNW 19:36:14 81° S
Cosmos 1833 Rocket 3.2 19:32:15 10° NNW 19:36:25 51° NNW 19:36:25 51° NNW
Cosmos 1844 4.1 19:32:55 10° SW 19:38:32 61° NW 19:39:07 57° NNW
Cosmos 2082 Rocket 3.4 19:34:33 10° NNW 19:37:48 32° N 19:37:48 32° N
Cosmos 2026 Rocket 4.2 19:34:58 10° SSW 19:41:03 68° WNW 19:47:16 10° N
USA 281 3.9 19:43:33 40° N 19:43:33 40° N 19:48:02 10° NNW
USA 229 DEB 3.9 19:41:11 10° NW 19:48:27 78° SW 19:49:18 69° S
USA 229 3.8 19:41:17 10° NW 19:48:33 78° SW 19:49:21 71° S
USA 267 3.9 19:51:34 42° S 19:51:34 42° S 19:56:04 10° SW
H-2A R/B 4.4 19:54:39 10° SW 19:58:15 20° W 20:01:56 10° NW
Cosmos 1844 Rocket 3.8 19:55:20 10° WSW 20:00:35 38° NW 20:01:07 37° NW
NOSS 3-1 (A) 4.0 19:56:39 10° NW 20:04:01 75° SW 20:04:27 73° SSW
ATLAS 2AS CENTAUR R/B 4.1 20:05:35 10° WNW 20:12:24 31° N 20:12:56 31° N
USA 234 3.9 20:27:41 51° W 20:27:41 51° W 20:32:35 10° WNW
SJ 16-02 4.4 20:32:10 10° W 20:33:02 12° WNW 20:33:02 12° WNW
CZ-4C R/B 4.5 20:49:02 10° NW 20:51:41 22° NNW 20:51:41 22° NNW
